Location: Lomond
(50.3500°N, 112.6333°W)
Time: 07:14:12
(UTC+00:00)

AO-91 - Visible Passes

Search period start: 06 December 2023 00:00
Search period end: 16 December 2023 00:00
Orbit: 445 x 755 km, 97.6° (Epoch: 06 December)

Date Brightness Start Highest point End Pass type
(mag) Time Alt. Az. Time Alt. Az. Time Alt. Az.
06 Dec ? 14:31:04 10° E 14:33:16 13° NE 14:35:27 10° NNE visible
14 Dec ? 14:25:26 10° ENE 14:26:29 11° NE 14:27:32 10° NE visible
15 Dec ? 14:35:15 10° E 14:37:22 13° NE 14:39:27 10° NNE visible
